Terug naar catalogus

LEMUR-2 CALLUM-K-J

ActiefWetenschapSSO
NORAD 67366·PAYLOAD·🇺🇸 United States

Gelanceerd Jan 11, 2026 vanaf Vandenberg Space Force Base

Loading…

Volgende Passages (komende 24 uur)

TLE

VersSource: Space-Track

Epoch: Sep 14, 2026, 22:29 UTC

1 67366U 26004D   26257.93736282  .00003822  00000-0  41308-3 0  9996
2 67366  97.8075 255.1791 0008109 189.3555 170.7512 14.88875220 36647

Volg LEMUR-2 CALLUM-K-J in realtime met AllMySat

Download on the App Store